| time (UTC) | temp C | wind direction | speed KPH | gust KPH | rain 1hr cm | rain 24hr cm | rain mn cm | humidity % | barometer mb |
| 20260906145502 | 28 | 171 | 3.2 | 4.8 | 0.00 | 0.00 | 0.00 | 73 | 1019.0 |
| 20260906145001 | 27 | 104 | 3.2 | 8.0 | 0.00 | 0.00 | 0.00 | 74 | 1018.9 |
| 20260906144456 | 28 | 189 | 3.2 | 6.4 | 0.00 | 0.00 | 0.00 | 74 | 1018.9 |
| 20260906143951 | 27 | 298 | 1.6 | 4.8 | 0.00 | 0.00 | 0.00 | 76 | 1018.8 |
| 20260906143447 | 27 | 17 | 0.0 | 6.4 | 0.00 | 0.00 | 0.00 | 77 | 1018.9 |
| 20260906142943 | 27 | 112 | 4.8 | 6.4 | 0.00 | 0.00 | 0.00 | 78 | 1018.9 |
| 20260906142436 | 27 | 35 | 1.6 | 8.0 | 0.00 | 0.00 | 0.00 | 77 | 1018.9 |
| 20260906141931 | 27 | 232 | 1.6 | 6.4 | 0.00 | 0.00 | 0.00 | 78 | 1018.7 |
| 20260906141426 | 26 | 118 | 1.6 | 4.8 | 0.00 | 0.00 | 0.00 | 81 | 1018.6 |
| 20260906140926 | 25 | 91 | 1.6 | 6.4 | 0.00 | 0.00 | 0.00 | 82 | 1018.6 |
| 20260906140420 | 25 | 218 | 1.6 | 8.0 | 0.00 | 0.00 | 0.00 | 82 | 1018.7 |
| 20260906135918 | 25 | 163 | 4.8 | 4.8 | 0.00 | 0.00 | 0.00 | 84 | 1018.5 |
| 20260906135412 | 25 | 154 | 3.2 | 6.4 | 0.00 | 0.00 | 0.00 | 84 | 1018.5 |
| 20260906134908 | 25 | 277 | 3.2 | 6.4 | 0.00 | 0.00 | 0.00 | 86 | 1018.5 |
| 20260906134403 | 25 | 304 | 3.2 | 4.8 | 0.00 | 0.00 | 0.00 | 86 | 1018.8 |
| 20260906133858 | 25 | 135 | 1.6 | 1.6 | 0.00 | 0.00 | 0.00 | 86 | 1018.8 |
| 20260906133354 | 24 | 162 | 3.2 | 4.8 | 0.00 | 0.00 | 0.00 | 87 | 1018.7 |
| 20260906132849 | 24 | 140 | 3.2 | 4.8 | 0.00 | 0.00 | 0.00 | 87 | 1018.5 |
| 20260906132344 | 24 | 160 | 3.2 | 3.2 | 0.00 | 0.00 | 0.00 | 88 | 1018.7 |
| 20260906131840 | 24 | 168 | 1.6 | 4.8 | 0.00 | 0.00 | 0.00 | 88 | 1018.8 |
| 20260906131335 | 24 | 192 | 3.2 | 4.8 | 0.00 | 0.00 | 0.00 | 88 | 1018.8 |
| 20260906130831 | 24 | 309 | 0.0 | 1.6 | 0.00 | 0.00 | 0.00 | 89 | 1018.7 |
| 20260906130330 | 23 | 344 | 1.6 | 1.6 | 0.00 | 0.00 | 0.00 | 89 | 1018.7 |
| 20260906125830 | 23 | 193 | 1.6 | 3.2 | 0.00 | 0.00 | 0.00 | 89 | 1018.5 |
| 20260906125326 | 23 | 203 | 0.0 | 3.2 | 0.00 | 0.00 | 0.00 | 90 | 1018.7 |
| 20260906124822 | 23 | 164 | 1.6 | 3.2 | 0.00 | 0.00 | 0.00 | 90 | 1018.6 |
| 20260906124318 | 23 | 152 | 0.0 | 4.8 | 0.00 | 0.00 | 0.00 | 91 | 1018.5 |
| 20260906123816 | 23 | 195 | 0.0 | 3.2 | 0.00 | 0.00 | 0.00 | 92 | 1018.5 |
| 20260906123311 | 23 | 185 | 0.0 | 4.8 | 0.00 | 0.00 | 0.00 | 92 | 1018.4 |
| 20260906122811 | 23 | 62 | 0.0 | 3.2 | 0.00 | 0.00 | 0.00 | 93 | 1018.2 |
| 20260906122301 | 23 | 205 | 0.0 | 3.2 | 0.00 | 0.00 | 0.00 | 93 | 1018.2 |
| 20260906121758 | 23 | 25 | 0.0 | 1.6 | 0.00 | 0.00 | 0.00 | 93 | 1018.3 |
| 20260906121253 | 23 | 89 | 0.0 | 0.0 | 0.00 | 0.00 | 0.00 | 93 | 1018.2 |
| 20260906120748 | 23 | 195 | 0.0 | 1.6 | 0.00 | 0.00 | 0.00 | 93 | 1018.1 |
| 20260906120245 | 23 | 195 | 0.0 | 1.6 | 0.00 | 0.00 | 0.00 | 93 | 1018.1 |
| 20260906115740 | 23 | 197 | 0.0 | 1.6 | 0.00 | 0.00 | 0.00 | 93 | 1018.2 |
| 20260906115235 | 23 | 124 | 0.0 | 0.0 | 0.00 | 0.00 | 0.00 | 93 | 1018.1 |
| 20260906114734 | 23 | 124 | 0.0 | 0.0 | 0.00 | 0.00 | 0.00 | 93 | 1017.8 |
| 20260906114224 | 23 | 205 | 0.0 | 0.0 | 0.00 | 0.00 | 0.00 | 92 | 1017.7 |
| 20260906113719 | 23 | 132 | 0.0 | 1.6 | 0.00 | 0.00 | 0.00 | 92 | 1018.1 |
| 20260906113218 | 23 | 154 | 0.0 | 1.6 | 0.00 | 0.00 | 0.00 | 92 | 1018.0 |
| 20260906112713 | 23 | 217 | 0.0 | 0.0 | 0.00 | 0.00 | 0.00 | 92 | 1017.9 |
| 20260906112210 | 23 | 217 | 0.0 | 1.6 | 0.00 | 0.00 | 0.00 | 92 | 1017.8 |
| 20260906111708 | 23 | 217 | 0.0 | 0.0 | 0.00 | 0.00 | 0.00 | 92 | 1017.7 |
| 20260906111157 | 23 | 157 | 0.0 | 0.0 | 0.00 | 0.00 | 0.00 | 92 | 1017.9 |
| 20260906110652 | 23 | 157 | 0.0 | 1.6 | 0.00 | 0.00 | 0.00 | 91 | 1017.7 |
| 20260906110147 | 23 | 217 | 0.0 | 0.0 | 0.00 | 0.00 | 0.00 | 91 | 1017.5 |
| 20260906105641 | 23 | 37 | 0.0 | 0.0 | 0.00 | 0.00 | 0.00 | 90 | 1017.7 |
| 20260906105138 | 23 | 82 | 0.0 | 1.6 | 0.00 | 0.00 | 0.00 | 91 | 1017.5 |
| 20260906104637 | 23 | 315 | 0.0 | 0.0 | 0.00 | 0.00 | 0.00 | 91 | 1017.4 |
| 20260906104136 | 23 | 224 | 0.0 | 0.0 | 0.00 | 0.00 | 0.00 | 91 | 1017.4 |
| 20260906103635 | 24 | 224 | 0.0 | 0.0 | 0.00 | 0.00 | 0.00 | 90 | 1017.4 |
| 20260906103130 | 24 | 202 | 0.0 | 0.0 | 0.00 | 0.00 | 0.00 | 89 | 1017.3 |
| 20260906102625 | 24 | 129 | 0.0 | 1.6 | 0.00 | 0.00 | 0.00 | 89 | 1017.3 |
| 20260906102120 | 24 | 75 | 0.0 | 0.0 | 0.00 | 0.00 | 0.00 | 89 | 1017.3 |
| 20260906101614 | 24 | 297 | 0.0 | 1.6 | 0.00 | 0.00 | 0.00 | 89 | 1017.4 |
| 20260906101114 | 24 | 322 | 0.0 | 0.0 | 0.00 | 0.00 | 0.00 | 87 | 1017.4 |
| 20260906100610 | 24 | 309 | 0.0 | 0.0 | 0.00 | 0.00 | 0.00 | 88 | 1017.3 |
| 20260906100110 | 25 | 309 | 0.0 | 0.0 | 0.00 | 0.00 | 0.00 | 88 | 1017.1 |
| 20260906095610 | 25 | 142 | 0.0 | 1.6 | 0.00 | 0.00 | 0.00 | 88 | 1017.3 |
| 20260906095105 | 25 | 251 | 1.6 | 3.2 | 0.00 | 0.00 | 0.00 | 89 | 1017.2 |
| 20260906094604 | 25 | 190 | 0.0 | 1.6 | 0.00 | 0.00 | 0.00 | 89 | 1017.3 |
| 20260906094100 | 25 | 148 | 1.6 | 4.8 | 0.00 | 0.00 | 0.00 | 89 | 1017.1 |
| 20260906093556 | 25 | 246 | 0.0 | 3.2 | 0.00 | 0.00 | 0.00 | 89 | 1017.2 |
| 20260906093051 | 25 | 148 | 0.0 | 3.2 | 0.00 | 0.00 | 0.00 | 89 | 1017.1 |
| 20260906092546 | 25 | 113 | 0.0 | 1.6 | 0.00 | 0.00 | 0.00 | 89 | 1017.0 |
| 20260906092041 | 25 | 129 | 0.0 | 0.0 | 0.00 | 0.00 | 0.00 | 89 | 1016.9 |
| 20260906091537 | 25 | 333 | 0.0 | 0.0 | 0.00 | 0.00 | 0.00 | 88 | 1016.8 |
| 20260906091033 | 25 | 333 | 0.0 | 1.6 | 0.00 | 0.00 | 0.00 | 88 | 1016.8 |
| 20260906090527 | 25 | 243 | 0.0 | 3.2 | 0.00 | 0.00 | 0.00 | 88 | 1016.9 |
| 20260906090022 | 25 | 235 | 0.0 | 1.6 | 0.00 | 0.00 | 0.00 | 88 | 1016.7 |
| 20260906085521 | 25 | 230 | 0.0 | 0.0 | 0.00 | 0.00 | 0.00 | 88 | 1016.9 |
| 20260906085021 | 25 | 185 | 1.6 | 4.8 | 0.00 | 0.00 | 0.00 | 89 | 1017.0 |
| 20260906084515 | 25 | 226 | 1.6 | 1.6 | 0.00 | 0.00 | 0.00 | 89 | 1016.6 |
| 20260906084014 | 25 | 174 | 0.0 | 1.6 | 0.00 | 0.00 | 0.00 | 89 | 1016.7 |
| 20260906083511 | 26 | 60 | 0.0 | 4.8 | 0.00 | 0.00 | 0.00 | 89 | 1016.7 |
| 20260906083010 | 26 | 186 | 0.0 | 3.2 | 0.00 | 0.00 | 0.00 | 89 | 1016.7 |
| 20260906082505 | 26 | 184 | 0.0 | 1.6 | 0.00 | 0.00 | 0.00 | 90 | 1016.6 |
| 20260906082001 | 26 | 132 | 0.0 | 3.2 | 0.00 | 0.00 | 0.00 | 90 | 1016.7 |
| 20260906081456 | 26 | 236 | 0.0 | 1.6 | 0.00 | 0.00 | 0.00 | 90 | 1016.5 |
| 20260906080952 | 26 | 222 | 1.6 | 3.2 | 0.00 | 0.00 | 0.00 | 90 | 1016.7 |
| 20260906080449 | 26 | 249 | 0.0 | 0.0 | 0.00 | 0.00 | 0.00 | 90 | 1016.3 |
| 20260906075948 | 26 | 28 | 0.0 | 3.2 | 0.00 | 0.00 | 0.00 | 89 | 1016.7 |
| 20260906075443 | 26 | 293 | 0.0 | 1.6 | 0.00 | 0.00 | 0.00 | 89 | 1016.5 |
| 20260906074938 | 26 | 119 | 0.0 | 0.0 | 0.00 | 0.00 | 0.00 | 89 | 1016.8 |
| 20260906074433 | 26 | 246 | 0.0 | 1.6 | 0.00 | 0.00 | 0.00 | 89 | 1016.5 |
| 20260906073931 | 26 | 113 | 0.0 | 1.6 | 0.00 | 0.00 | 0.00 | 89 | 1016.7 |
| 20260906073420 | 26 | 130 | 0.0 | 0.0 | 0.00 | 0.00 | 0.00 | 89 | 1016.6 |
| 20260906072916 | 26 | 89 | 0.0 | 4.8 | 0.00 | 0.00 | 0.00 | 89 | 1016.6 |
| 20260906072412 | 26 | 125 | 0.0 | 1.6 | 0.00 | 0.00 | 0.00 | 89 | 1016.7 |
| 20260906071908 | 26 | 118 | 3.2 | 3.2 | 0.00 | 0.00 | 0.00 | 89 | 1016.6 |
| 20260906071403 | 26 | 89 | 0.0 | 0.0 | 0.00 | 0.00 | 0.00 | 88 | 1016.5 |
| 20260906070858 | 26 | 89 | 0.0 | 1.6 | 0.00 | 0.00 | 0.00 | 88 | 1016.4 |
| 20260906070354 | 27 | 144 | 0.0 | 3.2 | 0.00 | 0.00 | 0.00 | 88 | 1016.6 |
| 20260906065850 | 27 | 62 | 0.0 | 3.2 | 0.00 | 0.00 | 0.00 | 87 | 1016.5 |
| 20260906065344 | 27 | 252 | 0.0 | 1.6 | 0.00 | 0.00 | 0.00 | 88 | 1016.6 |
| 20260906064840 | 27 | 117 | 0.0 | 1.6 | 0.00 | 0.00 | 0.00 | 88 | 1016.6 |
| 20260906064337 | 27 | 164 | 1.6 | 3.2 | 0.00 | 0.00 | 0.00 | 87 | 1016.7 |
| 20260906063831 | 27 | 259 | 3.2 | 4.8 | 0.00 | 0.00 | 0.00 | 88 | 1016.7 |
| 20260906063326 | 26 | 76 | 0.0 | 3.2 | 0.00 | 0.00 | 0.00 | 88 | 1016.7 |
| 20260906062822 | 27 | 145 | 0.0 | 4.8 | 0.00 | 0.00 | 0.00 | 87 | 1016.8 |
| 20260906062321 | 27 | 37 | 0.0 | 1.6 | 0.00 | 0.00 | 0.00 | 87 | 1016.8 |
| 20260906061816 | 27 | 333 | 0.0 | 1.6 | 0.00 | 0.00 | 0.00 | 87 | 1016.6 |
| 20260906061312 | 27 | 230 | 0.0 | 1.6 | 0.00 | 0.00 | 0.00 | 87 | 1016.8 |
| 20260906060807 | 27 | 157 | 0.0 | 3.2 | 0.00 | 0.00 | 0.00 | 87 | 1016.6 |
| 20260906060305 | 27 | 62 | 0.0 | 1.6 | 0.00 | 0.00 | 0.00 | 87 | 1016.6 |
| 20260906055800 | 27 | 37 | 0.0 | 0.0 | 0.00 | 0.00 | 0.00 | 87 | 1016.6 |
| 20260906055255 | 27 | 89 | 0.0 | 1.6 | 0.00 | 0.00 | 0.00 | 87 | 1016.7 |
| 20260906054750 | 27 | 217 | 0.0 | 3.2 | 0.00 | 0.00 | 0.00 | 86 | 1016.5 |
| 20260906054246 | 27 | 135 | 0.0 | 0.0 | 0.00 | 0.00 | 0.00 | 86 | 1016.7 |
| 20260906053743 | 27 | 130 | 0.0 | 3.2 | 0.00 | 0.00 | 0.00 | 86 | 1016.6 |
| 20260906053238 | 27 | 166 | 0.0 | 3.2 | 0.00 | 0.00 | 0.00 | 86 | 1016.9 |
| 20260906052732 | 27 | 157 | 0.0 | 1.6 | 0.00 | 0.00 | 0.00 | 85 | 1016.6 |
| 20260906052229 | 27 | 255 | 0.0 | 1.6 | 0.00 | 0.00 | 0.00 | 85 | 1016.6 |
| 20260906051725 | 27 | 195 | 0.0 | 0.0 | 0.00 | 0.00 | 0.00 | 85 | 1016.7 |
| 20260906051225 | 27 | 117 | 0.0 | 1.6 | 0.00 | 0.00 | 0.00 | 84 | 1016.8 |
| 20260906050720 | 27 | 230 | 0.0 | 1.6 | 0.00 | 0.00 | 0.00 | 85 | 1016.6 |
| 20260906050215 | 27 | 124 | 0.0 | 0.0 | 0.00 | 0.00 | 0.00 | 83 | 1016.5 |
| 20260906045714 | 27 | 125 | 0.0 | 1.6 | 0.00 | 0.00 | 0.00 | 83 | 1016.4 |
| 20260906045208 | 27 | 55 | 0.0 | 1.6 | 0.00 | 0.00 | 0.00 | 82 | 1016.3 |
| 20260906044705 | 27 | 269 | 0.0 | 1.6 | 0.00 | 0.00 | 0.00 | 85 | 1016.4 |
| 20260906044200 | 27 | 153 | 1.6 | 1.6 | 0.00 | 0.00 | 0.00 | 84 | 1016.3 |
| 20260906043656 | 27 | 242 | 0.0 | 0.0 | 0.00 | 0.00 | 0.00 | 83 | 1016.5 |
| 20260906043152 | 27 | 166 | 0.0 | 1.6 | 0.00 | 0.00 | 0.00 | 82 | 1016.4 |
| 20260906042651 | 27 | 135 | 0.0 | 0.0 | 0.00 | 0.00 | 0.00 | 82 | 1016.3 |
| 20260906042144 | 27 | 129 | 0.0 | 1.6 | 0.00 | 0.00 | 0.00 | 83 | 1016.3 |
| 20260906041641 | 27 | 89 | 0.0 | 1.6 | 0.00 | 0.00 | 0.00 | 82 | 1016.2 |
| 20260906041135 | 27 | 124 | 0.0 | 0.0 | 0.00 | 0.00 | 0.00 | 80 | 1016.3 |
| 20260906040625 | 27 | 124 | 0.0 | 1.6 | 0.00 | 0.00 | 0.00 | 82 | 1016.2 |
| 20260906040120 | 27 | 135 | 0.0 | 1.6 | 0.00 | 0.00 | 0.00 | 81 | 1016.1 |
| 20260906035615 | 27 | 124 | 0.0 | 1.6 | 0.00 | 0.00 | 0.00 | 81 | 1015.9 |
| 20260906035111 | 27 | 122 | 0.0 | 3.2 | 0.00 | 0.00 | 0.00 | 81 | 1016.0 |
| 20260906034606 | 27 | 164 | 0.0 | 1.6 | 0.00 | 0.00 | 0.00 | 82 | 1016.2 |
| 20260906034100 | 27 | 117 | 0.0 | 3.2 | 0.00 | 0.00 | 0.00 | 79 | 1016.0 |
| 20260906033556 | 27 | 103 | 0.0 | 0.0 | 0.00 | 0.00 | 0.00 | 80 | 1016.0 |
| 20260906033051 | 27 | 144 | 0.0 | 3.2 | 0.00 | 0.00 | 0.00 | 81 | 1016.0 |
| 20260906032547 | 27 | 224 | 0.0 | 3.2 | 0.00 | 0.00 | 0.00 | 80 | 1015.9 |
| 20260906032042 | 27 | 169 | 0.0 | 1.6 | 0.00 | 0.00 | 0.00 | 77 | 1015.9 |
| 20260906031538 | 27 | 142 | 0.0 | 0.0 | 0.00 | 0.00 | 0.00 | 78 | 1015.8 |
| 20260906031033 | 27 | 119 | 0.0 | 1.6 | 0.00 | 0.00 | 0.00 | 80 | 1015.7 |
| 20260906030532 | 27 | 117 | 0.0 | 1.6 | 0.00 | 0.00 | 0.00 | 81 | 1015.7 |
| 20260906030026 | 27 | 119 | 0.0 | 1.6 | 0.00 | 0.00 | 0.00 | 80 | 1015.7 |
| 20260906025526 | 27 | 129 | 0.0 | 1.6 | 0.00 | 0.00 | 0.00 | 80 | 1015.5 |
| 20260906025024 | 27 | 103 | 0.0 | 1.6 | 0.00 | 0.00 | 0.00 | 77 | 1015.6 |
| 20260906024519 | 27 | 124 | 0.0 | 1.6 | 0.00 | 0.00 | 0.00 | 77 | 1015.7 |
| 20260906024014 | 28 | 140 | 1.6 | 1.6 | 0.00 | 0.00 | 0.00 | 79 | 1015.8 |
| 20260906023510 | 28 | 142 | 0.0 | 0.0 | 0.00 | 0.00 | 0.00 | 76 | 1015.6 |
| 20260906023004 | 28 | 89 | 0.0 | 1.6 | 0.00 | 0.00 | 0.00 | 78 | 1015.1 |
| 20260906022500 | 28 | 147 | 0.0 | 1.6 | 0.00 | 0.00 | 0.00 | 78 | 1015.2 |
| 20260906021955 | 28 | 120 | 0.0 | 3.2 | 0.00 | 0.00 | 0.00 | 77 | 1015.1 |
| 20260906021449 | 28 | 124 | 0.0 | 1.6 | 0.00 | 0.00 | 0.00 | 78 | 1015.1 |
| 20260906020944 | 28 | 103 | 0.0 | 1.6 | 0.00 | 0.00 | 0.00 | 77 | 1014.9 |
| 20260906020438 | 28 | 157 | 0.0 | 1.6 | 0.00 | 0.00 | 0.00 | 76 | 1014.9 |
| 20260906015932 | 28 | 130 | 0.0 | 1.6 | 0.00 | 0.00 | 0.00 | 74 | 1014.8 |
| 20260906015427 | 28 | 104 | 0.0 | 1.6 | 0.00 | 0.00 | 0.00 | 76 | 1014.9 |
| 20260906014927 | 30 | 230 | 0.0 | 1.6 | 0.00 | 0.00 | 0.00 | 71 | 1014.8 |
| 20260906014426 | 29 | 124 | 0.0 | 0.0 | 0.00 | 0.00 | 0.00 | 73 | 1014.8 |
| 20260906013922 | 29 | 124 | 0.0 | 1.6 | 0.00 | 0.00 | 0.00 | 73 | 1015.0 |
| 20260906013418 | 30 | 129 | 0.0 | 0.0 | 0.00 | 0.00 | 0.00 | 72 | 1014.5 |
| 20260906012914 | 30 | 129 | 0.0 | 0.0 | 0.00 | 0.00 | 0.00 | 71 | 1014.5 |
| 20260906012408 | 30 | 142 | 0.0 | 0.0 | 0.00 | 0.00 | 0.00 | 71 | 1014.5 |
| 20260906011908 | 30 | 142 | 0.0 | 1.6 | 0.00 | 0.00 | 0.00 | 71 | 1014.5 |
| 20260906011403 | 30 | 130 | 0.0 | 0.0 | 0.00 | 0.00 | 0.00 | 70 | 1014.5 |
| 20260906010858 | 31 | 201 | 0.0 | 1.6 | 0.00 | 0.00 | 0.00 | 68 | 1014.3 |
| 20260906010354 | 31 | 117 | 0.0 | 0.0 | 0.00 | 0.00 | 0.00 | 68 | 1014.2 |
| 20260906005850 | 31 | 230 | 0.0 | 1.6 | 0.00 | 0.00 | 0.00 | 69 | 1014.3 |
| 20260906005349 | 31 | 117 | 0.0 | 1.6 | 0.00 | 0.00 | 0.00 | 66 | 1014.1 |
| 20260906004848 | 32 | 217 | 0.0 | 0.0 | 0.00 | 0.00 | 0.00 | 66 | 1014.1 |
| 20260906004347 | 32 | 242 | 0.0 | 1.6 | 0.00 | 0.00 | 0.00 | 63 | 1014.3 |
| 20260906003842 | 31 | 142 | 0.0 | 1.6 | 0.00 | 0.00 | 0.00 | 65 | 1014.0 |
| 20260906003338 | 32 | 116 | 0.0 | 1.6 | 0.00 | 0.00 | 0.00 | 65 | 1013.8 |
| 20260906002834 | 32 | 117 | 0.0 | 1.6 | 0.00 | 0.00 | 0.00 | 64 | 1013.9 |
| 20260906002333 | 33 | 255 | 0.0 | 0.0 | 0.00 | 0.00 | 0.00 | 60 | 1014.1 |
| 20260906001828 | 33 | 89 | 0.0 | 0.0 | 0.00 | 0.00 | 0.00 | 60 | 1014.3 |
| 20260906001324 | 34 | 242 | 0.0 | 1.6 | 0.00 | 0.00 | 0.00 | 57 | 1014.0 |
| 20260906000819 | 34 | 269 | 0.0 | 3.2 | 0.00 | 0.00 | 0.00 | 56 | 1014.1 |
| 20260906000313 | 34 | 322 | 0.0 | 1.6 | 0.00 | 0.00 | 0.00 | 57 | 1014.0 |
| 20260905235809 | 34 | 309 | 0.0 | 0.0 | 0.00 | 0.00 | 0.00 | 57 | 1014.0 |
| 20260905235308 | 35 | 117 | 0.0 | 0.0 | 0.00 | 0.00 | 0.00 | 56 | 1014.1 |
| 20260905234804 | 35 | 245 | 0.0 | 1.6 | 0.00 | 0.00 | 0.00 | 55 | 1014.1 |
| 20260905234259 | 35 | 193 | 0.0 | 1.6 | 0.00 | 0.00 | 0.00 | 55 | 1014.1 |
| 20260905233754 | 35 | 62 | 0.0 | 1.6 | 0.00 | 0.00 | 0.00 | 55 | 1014.1 |
| 20260905233254 | 35 | 266 | 1.6 | 3.2 | 0.00 | 0.00 | 0.00 | 53 | 1014.1 |
| 20260905232753 | 35 | 118 | 1.6 | 1.6 | 0.00 | 0.00 | 0.00 | 56 | 1014.2 |
| 20260905232249 | 35 | 249 | 0.0 | 3.2 | 0.00 | 0.00 | 0.00 | 54 | 1014.3 |
| 20260905231745 | 35 | 326 | 0.0 | 3.2 | 0.00 | 0.00 | 0.00 | 56 | 1014.4 |
| 20260905231240 | 35 | 199 | 0.0 | 4.8 | 0.00 | 0.00 | 0.00 | 56 | 1014.3 |
| 20260905230736 | 35 | 62 | 0.0 | 1.6 | 0.00 | 0.00 | 0.00 | 53 | 1014.3 |
| 20260905230233 | 35 | 233 | 0.0 | 3.2 | 0.00 | 0.00 | 0.00 | 53 | 1014.1 |
| 20260905225733 | 35 | 203 | 3.2 | 4.8 | 0.00 | 0.00 | 0.00 | 56 | 1014.3 |
| 20260905225229 | 36 | 166 | 0.0 | 4.8 | 0.00 | 0.00 | 0.00 | 54 | 1014.1 |
| 20260905224727 | 36 | 268 | 1.6 | 3.2 | 0.00 | 0.00 | 0.00 | 48 | 1014.3 |
| 20260905224223 | 37 | 237 | 1.6 | 4.8 | 0.00 | 0.00 | 0.00 | 48 | 1014.0 |
| 20260905223719 | 38 | 220 | 1.6 | 3.2 | 0.00 | 0.00 | 0.00 | 50 | 1014.0 |
| 20260905223216 | 38 | 254 | 3.2 | 3.2 | 0.00 | 0.00 | 0.00 | 47 | 1014.0 |
| 20260905222712 | 39 | 194 | 0.0 | 3.2 | 0.00 | 0.00 | 0.00 | 45 | 1014.2 |
| 20260905222210 | 39 | 224 | 0.0 | 3.2 | 0.00 | 0.00 | 0.00 | 47 | 1014.1 |
| 20260905221706 | 38 | 260 | 1.6 | 3.2 | 0.00 | 0.00 | 0.00 | 47 | 1014.0 |
| 20260905221203 | 37 | 246 | 1.6 | 4.8 | 0.00 | 0.00 | 0.00 | 48 | 1014.2 |
| 20260905220659 | 38 | 261 | 1.6 | 3.2 | 0.00 | 0.00 | 0.00 | 46 | 1014.1 |
| 20260905220154 | 40 | 260 | 0.0 | 3.2 | 0.00 | 0.00 | 0.00 | 45 | 1014.0 |
| 20260905215649 | 40 | 242 | 0.0 | 3.2 | 0.00 | 0.00 | 0.00 | 42 | 1014.3 |
| 20260905215144 | 39 | 228 | 1.6 | 3.2 | 0.00 | 0.00 | 0.00 | 43 | 1014.2 |
| 20260905214640 | 40 | 273 | 1.6 | 3.2 | 0.00 | 0.00 | 0.00 | 44 | 1014.1 |
| 20260905214135 | 39 | 195 | 3.2 | 4.8 | 0.00 | 0.00 | 0.00 | 43 | 1014.4 |
| 20260905213630 | 40 | 248 | 3.2 | 4.8 | 0.00 | 0.00 | 0.00 | 42 | 1014.2 |
| 20260905213125 | 39 | 265 | 3.2 | 6.4 | 0.00 | 0.00 | 0.00 | 43 | 1014.0 |
| 20260905212620 | 40 | 57 | 0.0 | 3.2 | 0.00 | 0.00 | 0.00 | 41 | 1014.2 |
| 20260905212114 | 40 | 264 | 3.2 | 4.8 | 0.00 | 0.00 | 0.00 | 41 | 1014.1 |
| 20260905211609 | 40 | 251 | 3.2 | 4.8 | 0.00 | 0.00 | 0.00 | 39 | 1014.4 |
| 20260905211105 | 40 | 220 | 1.6 | 4.8 | 0.00 | 0.00 | 0.00 | 39 | 1014.3 |
| 20260905210602 | 40 | 278 | 3.2 | 4.8 | 0.00 | 0.00 | 0.00 | 40 | 1014.3 |
| 20260905210055 | 38 | 134 | 1.6 | 4.8 | 0.00 | 0.00 | 0.00 | 44 | 1014.4 |
| 20260905205554 | 38 | 238 | 3.2 | 4.8 | 0.00 | 0.00 | 0.00 | 42 | 1014.6 |
| 20260905205049 | 38 | 268 | 3.2 | 6.4 | 0.00 | 0.00 | 0.00 | 43 | 1014.7 |
| 20260905204544 | 37 | 163 | 3.2 | 9.7 | 0.00 | 0.00 | 0.00 | 41 | 1014.6 |
| 20260905204039 | 37 | 247 | 3.2 | 11.3 | 0.00 | 0.00 | 0.00 | 45 | 1014.6 |
| 20260905203538 | 40 | 228 | 0.0 | 4.8 | 0.00 | 0.00 | 0.00 | 44 | 1014.5 |
| 20260905203034 | 40 | 211 | 0.0 | 4.8 | 0.00 | 0.00 | 0.00 | 42 | 1014.4 |
| 20260905202529 | 39 | 292 | 3.2 | 3.2 | 0.00 | 0.00 | 0.00 | 44 | 1014.6 |
| 20260905202025 | 38 | 235 | 1.6 | 4.8 | 0.00 | 0.00 | 0.00 | 44 | 1014.6 |
| 20260905201520 | 39 | 264 | 3.2 | 4.8 | 0.00 | 0.00 | 0.00 | 43 | 1014.6 |
| 20260905201019 | 40 | 283 | 0.0 | 3.2 | 0.00 | 0.00 | 0.00 | 42 | 1014.7 |
| 20260905200515 | 41 | 51 | 3.2 | 6.4 | 0.00 | 0.00 | 0.00 | 40 | 1014.7 |
| 20260905200015 | 41 | 171 | 1.6 | 8.0 | 0.00 | 0.00 | 0.00 | 38 | 1014.7 |
| 20260905195515 | 42 | 223 | 3.2 | 4.8 | 0.00 | 0.00 | 0.00 | 38 | 1014.8 |
| 20260905195010 | 41 | 249 | 3.2 | 4.8 | 0.00 | 0.00 | 0.00 | 38 | 1014.9 |
| 20260905194509 | 41 | 277 | 4.8 | 6.4 | 0.00 | 0.00 | 0.00 | 38 | 1015.0 |
| 20260905194003 | 41 | 290 | 3.2 | 6.4 | 0.00 | 0.00 | 0.00 | 38 | 1014.9 |
| 20260905193458 | 41 | 230 | 1.6 | 4.8 | 0.00 | 0.00 | 0.00 | 40 | 1015.1 |
| 20260905192953 | 42 | 136 | 1.6 | 9.7 | 0.00 | 0.00 | 0.00 | 38 | 1015.2 |
| 20260905192449 | 42 | 260 | 3.2 | 8.0 | 0.00 | 0.00 | 0.00 | 38 | 1015.4 |
| 20260905191945 | 42 | 250 | 4.8 | 6.4 | 0.00 | 0.00 | 0.00 | 37 | 1015.2 |
| 20260905191443 | 42 | 249 | 3.2 | 8.0 | 0.00 | 0.00 | 0.00 | 38 | 1015.4 |
| 20260905190942 | 41 | 60 | 1.6 | 9.7 | 0.00 | 0.00 | 0.00 | 39 | 1015.4 |
| 20260905190436 | 41 | 146 | 4.8 | 6.4 | 0.00 | 0.00 | 0.00 | 38 | 1015.6 |
| 20260905185934 | 41 | 255 | 1.6 | 8.0 | 0.00 | 0.00 | 0.00 | 39 | 1015.4 |
| 20260905185429 | 40 | 223 | 3.2 | 9.7 | 0.00 | 0.00 | 0.00 | 40 | 1015.5 |
| 20260905184928 | 41 | 178 | 3.2 | 9.7 | 0.00 | 0.00 | 0.00 | 37 | 1015.4 |
| 20260905184423 | 42 | 193 | 6.4 | 9.7 | 0.00 | 0.00 | 0.00 | 37 | 1015.6 |
| 20260905183921 | 41 | 242 | 0.0 | 4.8 | 0.00 | 0.00 | 0.00 | 39 | 1015.7 |
| 20260905183416 | 41 | 310 | 3.2 | 6.4 | 0.00 | 0.00 | 0.00 | 39 | 1015.7 |
| 20260905182912 | 40 | 252 | 3.2 | 14.5 | 0.00 | 0.00 | 0.00 | 44 | 1015.7 |
| 20260905182410 | 40 | 0 | 1.6 | 8.0 | 0.00 | 0.00 | 0.00 | 42 | 1015.9 |
| 20260905181907 | 40 | 241 | 3.2 | 9.7 | 0.00 | 0.00 | 0.00 | 39 | 1015.7 |
| 20260905181407 | 40 | 266 | 4.8 | 8.0 | 0.00 | 0.00 | 0.00 | 43 | 1016.0 |
| 20260905180905 | 40 | 195 | 4.8 | 9.7 | 0.00 | 0.00 | 0.00 | 42 | 1016.0 |
| 20260905180401 | 40 | 234 | 3.2 | 8.0 | 0.00 | 0.00 | 0.00 | 43 | 1016.1 |
| 20260905175855 | 39 | 14 | 1.6 | 6.4 | 0.00 | 0.00 | 0.00 | 45 | 1016.0 |
| 20260905175355 | 40 | 261 | 1.6 | 8.0 | 0.00 | 0.00 | 0.00 | 45 | 1016.0 |
| 20260905174850 | 40 | 320 | 4.8 | 6.4 | 0.00 | 0.00 | 0.00 | 45 | 1016.0 |
| 20260905174346 | 39 | 253 | 4.8 | 11.3 | 0.00 | 0.00 | 0.00 | 45 | 1016.1 |
| 20260905173842 | 39 | 203 | 6.4 | 12.9 | 0.00 | 0.00 | 0.00 | 44 | 1016.0 |
| 20260905173337 | 38 | 241 | 1.6 | 8.0 | 0.00 | 0.00 | 0.00 | 49 | 1016.2 |
| 20260905172832 | 39 | 162 | 0.0 | 8.0 | 0.00 | 0.00 | 0.00 | 44 | 1016.4 |
| 20260905172330 | 38 | 179 | 0.0 | 6.4 | 0.00 | 0.00 | 0.00 | 50 | 1016.4 |
| 20260905171827 | 39 | 167 | 0.0 | 6.4 | 0.00 | 0.00 | 0.00 | 44 | 1016.4 |
| 20260905171323 | 39 | 132 | 1.6 | 6.4 | 0.00 | 0.00 | 0.00 | 46 | 1016.6 |
| 20260905170819 | 38 | 239 | 3.2 | 8.0 | 0.00 | 0.00 | 0.00 | 45 | 1016.4 |
| 20260905170315 | 38 | 126 | 3.2 | 11.3 | 0.00 | 0.00 | 0.00 | 45 | 1016.5 |
| 20260905165814 | 38 | 269 | 0.0 | 4.8 | 0.00 | 0.00 | 0.00 | 46 | 1016.7 |
| 20260905165310 | 38 | 219 | 1.6 | 4.8 | 0.00 | 0.00 | 0.00 | 47 | 1016.8 |
| 20260905164809 | 37 | 206 | 0.0 | 6.4 | 0.00 | 0.00 | 0.00 | 51 | 1017.0 |
| 20260905164304 | 37 | 279 | 3.2 | 8.0 | 0.00 | 0.00 | 0.00 | 48 | 1016.7 |
| 20260905163759 | 36 | 244 | 4.8 | 6.4 | 0.00 | 0.00 | 0.00 | 50 | 1016.8 |
| 20260905163256 | 36 | 255 | 1.6 | 6.4 | 0.00 | 0.00 | 0.00 | 50 | 1016.9 |
| 20260905162752 | 37 | 211 | 1.6 | 8.0 | 0.00 | 0.00 | 0.00 | 50 | 1017.0 |
| 20260905162251 | 36 | 172 | 3.2 | 6.4 | 0.00 | 0.00 | 0.00 | 51 | 1016.9 |
| 20260905161746 | 37 | 140 | 0.0 | 4.8 | 0.00 | 0.00 | 0.00 | 52 | 1017.1 |
| 20260905161244 | 37 | 80 | 0.0 | 4.8 | 0.00 | 0.00 | 0.00 | 49 | 1017.0 |
| 20260905160737 | 36 | 164 | 0.0 | 4.8 | 0.00 | 0.00 | 0.00 | 52 | 1016.9 |
| 20260905160232 | 36 | 183 | 0.0 | 3.2 | 0.00 | 0.00 | 0.00 | 56 | 1017.2 |
| 20260905155726 | 36 | 230 | 0.0 | 6.4 | 0.00 | 0.00 | 0.00 | 54 | 1017.0 |
| 20260905155225 | 35 | 166 | 3.2 | 3.2 | 0.00 | 0.00 | 0.00 | 56 | 1017.0 |
| 20260905154719 | 35 | 266 | 3.2 | 4.8 | 0.00 | 0.00 | 0.00 | 58 | 1017.0 |
| 20260905154215 | 35 | 258 | 3.2 | 6.4 | 0.00 | 0.00 | 0.00 | 58 | 1017.0 |
| 20260905153711 | 35 | 268 | 1.6 | 8.0 | 0.00 | 0.00 | 0.00 | 58 | 1017.1 |
| 20260905153207 | 35 | 65 | 1.6 | 4.8 | 0.00 | 0.00 | 0.00 | 56 | 1017.1 |
| 20260905152701 | 35 | 261 | 3.2 | 3.2 | 0.00 | 0.00 | 0.00 | 58 | 1017.1 |
| 20260905152156 | 34 | 307 | 3.2 | 4.8 | 0.00 | 0.00 | 0.00 | 59 | 1017.1 |
| 20260905151656 | 33 | 201 | 3.2 | 11.3 | 0.00 | 0.00 | 0.00 | 59 | 1017.2 |
| 20260905151151 | 33 | 275 | 4.8 | 6.4 | 0.00 | 0.00 | 0.00 | 60 | 1017.0 |
| 20260905150652 | 33 | 181 | 1.6 | 8.0 | 0.00 | 0.00 | 0.00 | 60 | 1017.0 |
| 20260905150150 | 32 | 297 | 0.0 | 4.8 | 0.00 | 0.00 | 0.00 | 64 | 1017.0 |